period_start,C,m1,H,J0,J1,J2,J3,J4,J5,JA,JB,JC,JD,JJ,JK,JN,#
2014-12-25 00:01:59,0.19,3.86,0.00,22.45,26.96,30.09,4.81,26.80,1007.09,2031.02,2235.14,2366.75,2543.93,350.53,345.69,31.85,0000 0000 0000 0000 000000
2014-12-25 00:07:01,0.25,3.87,0.00,22.48,26.97,30.09,4.72,26.70,1007.28,2031.01,2233.50,2365.50,2542.54,350.27,345.37,31.88,0000 0000 0000 0000 000000
2014-12-25 00:12:02,0.22,3.87,0.00,22.49,26.97,30.09,4.80,26.79,1007.16,2031.00,2231.84,2364.28,2541.13,349.70,344.40,31.91,0000 0000 0000 0000 000000
2014-12-25 00:17:03,0.21,3.88,0.00,22.49,26.98,30.08,4.76,26.87,1006.98,2031.00,2230.33,2363.04,2539.75,350.10,345.08,31.94,0000 0000 0000 0000 000000
2014-12-25 00:22:05,0.25,3.89,0.00,22.50,27.00,30.11,4.71,26.68,1007.15,2031.00,2228.70,2361.76,2538.42,349.61,344.63,31.96,0000 0000 0000 0000 000000
2014-12-25 00:27:06,0.22,3.90,0.00,22.51,27.00,30.11,4.81,26.71,1007.01,2031.00,2227.08,2360.52,2536.99,349.92,344.85,31.99,0000 0000 0000 0000 000000
2014-12-25 00:32:07,0.23,3.90,0.00,22.55,27.01,30.12,4.86,26.83,1007.04,2031.00,2225.40,2359.26,2535.59,349.93,345.02,32.02,0000 0000 0000 0000 000000
2014-12-25 00:37:09,0.25,3.91,0.00,22.56,27.02,30.11,4.70,26.78,1006.89,2031.00,2223.72,2357.84,2534.11,350.39,345.26,32.05,0000 0000 0000 0000 000000
2014-12-25 00:42:10,0.23,3.92,0.00,22.58,27.02,30.14,4.68,26.68,1006.87,2030.98,2222.05,2356.57,2532.73,349.23,344.04,32.08,0000 0000 0000 0000 000000
2014-12-25 00:47:11,0.22,3.92,0.00,22.57,27.03,30.13,4.81,26.82,1006.85,2030.96,2220.51,2355.37,2531.37,350.32,345.16,32.11,0000 0000 0000 0000 000000
2014-12-25 00:52:12,0.20,3.93,0.00,22.58,27.05,30.15,4.74,26.65,1006.84,2030.96,2218.94,2354.15,2529.99,350.10,344.74,32.14,0000 0000 0000 0000 000000
2014-12-25 00:57:13,0.25,3.94,0.00,22.59,27.05,30.15,4.78,26.67,1006.79,2030.94,2217.32,2352.83,2528.60,349.77,344.58,32.17,0000 0000 0000 0000 000000
2014-12-25 01:02:15,0.23,3.94,0.00,22.58,27.07,30.18,4.80,26.70,1006.48,2030.90,2215.63,2351.58,2527.27,350.25,344.85,32.20,0000 0000 0000 0000 000000
2014-12-25 01:07:16,0.22,3.95,0.00,22.61,27.07,30.16,4.70,26.74,1006.39,2030.87,2214.01,2350.34,2525.78,349.61,344.12,32.23,0000 0000 0000 0000 000000
2014-12-25 01:12:17,0.20,3.96,0.00,22.63,27.09,30.17,4.87,26.85,1006.39,2030.72,2212.35,2349.03,2524.41,350.12,344.75,32.26,0000 0000 0000 0000 000000
2014-12-25 01:17:18,0.20,3.96,0.00,22.64,27.10,30.21,4.80,26.78,1006.36,2030.43,2210.64,2347.69,2522.91,350.36,344.91,32.29,0000 0000 0000 0000 000000
2014-12-25 01:22:20,0.24,3.97,0.00,22.65,27.10,30.20,4.74,26.73,1006.36,2030.49,2209.02,2346.49,2521.58,349.84,344.44,32.32,0000 0000 0000 0000 000000
2014-12-25 01:27:21,0.14,3.97,0.00,22.66,27.12,30.21,4.77,26.57,1006.36,2030.11,2207.28,2345.11,2520.08,350.29,345.13,32.35,0000 0000 0000 0000 000000
2014-12-25 01:32:23,0.24,3.98,0.00,22.65,27.12,30.20,4.80,26.64,1006.36,2030.06,2205.65,2343.85,2518.72,349.72,344.10,32.38,0000 0000 0000 0000 000000
2014-12-25 01:37:24,0.23,3.99,0.00,22.69,27.14,30.22,4.66,26.57,1006.36,2030.03,2203.99,2342.59,2517.38,349.43,343.99,32.41,0000 0000 0000 0000 000000
2014-12-25 01:42:25,0.22,4.00,0.00,22.70,27.15,30.24,4.81,26.77,1006.36,2030.03,2202.37,2341.35,2515.91,350.01,344.56,32.43,0000 0000 0000 0000 000000
2014-12-25 01:47:26,0.23,4.00,0.00,22.70,27.16,30.25,4.80,26.69,1006.37,2030.02,2200.81,2340.09,2514.60,349.43,343.91,32.46,0000 0000 0000 0000 000000
2014-12-25 01:52:27,0.21,4.01,0.00,22.72,27.17,30.24,4.73,26.66,1006.41,2030.01,2199.27,2338.83,2513.21,349.61,344.28,32.49,0000 0000 0000 0000 000000
2014-12-25 01:57:29,0.25,4.01,0.00,22.72,27.18,30.26,4.70,26.57,1006.42,2030.00,2197.68,2337.54,2511.82,350.02,344.55,32.52,0000 0000 0000 0000 000000
2014-12-25 02:02:30,0.22,4.02,0.00,22.70,27.20,30.31,4.69,26.67,1006.40,2030.00,2196.07,2336.33,2510.48,349.98,344.41,32.55,0000 0000 0000 0000 000000
2014-12-25 02:07:31,0.22,4.03,0.00,22.71,27.20,30.31,4.67,26.75,1006.41,2030.00,2194.45,2335.01,2509.10,349.56,344.21,32.58,0000 0000 0000 0000 000000
2014-12-25 02:12:33,0.27,4.04,0.00,22.72,27.22,30.33,4.70,26.77,1006.37,2029.99,2192.81,2333.69,2507.68,349.72,344.23,32.61,0000 0000 0000 0000 000000
2014-12-25 02:17:34,0.21,4.04,0.00,22.73,27.22,30.36,4.76,26.73,1006.37,2029.98,2191.19,2332.42,2506.27,350.06,344.42,32.64,0000 0000 0000 0000 000000
2014-12-25 02:22:35,0.23,4.05,0.00,22.71,27.23,30.37,4.79,26.70,1006.37,2029.98,2189.62,2331.18,2504.91,349.98,344.54,32.67,0000 0000 0000 0000 000000
2014-12-25 02:27:37,0.24,4.06,0.00,22.72,27.25,30.37,4.74,26.74,1006.37,2029.98,2188.02,2329.92,2503.62,349.96,344.82,32.70,0000 0000 0000 0000 000000
2014-12-25 02:32:38,0.23,4.06,0.00,22.75,27.25,30.40,4.76,26.67,1006.37,2029.94,2186.46,2328.61,2502.19,349.67,344.18,32.73,0000 0000 0000 0000 000000
2014-12-25 02:37:39,0.22,4.07,0.00,22.76,27.26,30.39,4.71,26.77,1006.36,2029.86,2184.87,2327.44,2500.79,349.93,344.39,32.76,0000 0000 0000 0000 000000
2014-12-25 02:42:41,0.19,4.08,0.00,22.77,27.27,30.38,4.82,26.86,1006.36,2029.79,2183.34,2326.17,2499.48,350.31,344.69,32.79,0000 0000 0000 0000 000000
2014-12-25 02:47:42,0.17,4.08,0.00,22.76,27.27,30.41,4.72,26.75,1006.32,2029.72,2181.77,2325.00,2498.22,350.01,344.42,32.82,0000 0000 0000 0000 000000
2014-12-25 02:52:43,0.26,4.09,0.00,22.76,27.30,30.44,4.76,26.77,1006.00,2029.66,2180.26,2323.72,2496.80,349.64,344.03,32.84,0000 0000 0000 0000 000000
2014-12-25 02:57:44,0.20,4.09,0.00,22.74,27.30,30.45,4.75,26.83,1005.92,2029.53,2178.63,2322.56,2495.58,349.95,344.36,32.87,0000 0000 0000 0000 000000
2014-12-25 03:02:46,0.16,4.10,0.00,22.72,27.30,30.48,4.84,26.87,1005.92,2029.31,2177.01,2321.32,2494.39,350.05,344.34,32.90,0000 0000 0000 0000 000000
2014-12-25 03:07:47,0.20,4.11,0.00,22.71,27.31,30.49,4.71,26.75,1005.88,2029.12,2175.44,2320.03,2493.00,349.62,343.86,32.93,0000 0000 0000 0000 000000
2014-12-25 03:12:48,0.24,4.11,0.00,22.70,27.32,30.50,4.74,26.78,1005.88,2029.07,2173.92,2318.77,2491.67,349.84,344.32,32.96,0000 0000 0000 0000 000000
2014-12-25 03:17:50,0.22,4.12,0.00,22.69,27.32,30.53,4.62,26.88,1005.87,2029.05,2172.33,2317.58,2490.36,349.07,343.37,32.99,0000 0000 0000 0000 000000
2014-12-25 03:22:51,0.22,4.13,0.00,22.67,27.32,30.52,4.77,26.77,1005.87,2029.04,2170.75,2316.36,2489.00,349.88,344.16,33.02,0000 0000 0000 0000 000000
2014-12-25 03:27:52,0.22,4.13,0.00,22.68,27.32,30.52,4.83,26.76,1005.87,2029.03,2169.23,2315.15,2487.74,350.07,344.41,33.05,0000 0000 0000 0000 000000
2014-12-25 03:32:54,0.24,4.14,0.00,22.66,27.33,30.48,4.77,26.89,1005.88,2029.02,2167.62,2313.88,2486.45,349.89,344.31,33.08,0000 0000 0000 0000 000000
2014-12-25 03:37:55,0.24,4.15,0.00,22.66,27.34,30.53,4.64,26.90,1005.87,2029.00,2165.95,2312.66,2485.06,349.37,343.75,33.11,0000 0000 0000 0000 000000
2014-12-25 03:42:56,0.22,4.15,0.00,22.64,27.34,30.53,4.76,26.84,1005.87,2029.00,2164.45,2311.47,2483.77,349.82,344.26,33.14,0000 0000 0000 0000 000000
2014-12-25 03:47:58,0.21,4.16,0.00,22.60,27.34,30.54,4.82,26.78,1005.86,2029.00,2162.93,2310.34,2482.52,350.12,344.51,33.17,0000 0000 0000 0000 000000
2014-12-25 03:52:59,0.21,4.17,0.00,22.61,27.34,30.53,4.62,26.93,1005.87,2029.00,2161.44,2309.15,2481.20,349.58,344.08,33.20,0000 0000 0000 0000 000000
2014-12-25 03:58:00,0.23,4.17,0.00,22.59,27.35,30.54,4.78,26.93,1005.87,2029.01,2159.85,2307.90,2479.95,349.69,344.50,33.23,0000 0000 0000 0000 000000
2014-12-25 04:03:02,0.24,4.18,0.00,22.60,27.34,30.53,4.62,26.85,1005.87,2029.00,2158.35,2306.75,2478.65,349.92,344.38,33.25,0000 0000 0000 0000 000000
2014-12-25 04:08:03,0.24,4.19,0.00,22.57,27.34,30.51,4.79,26.88,1005.86,2029.00,2156.74,2305.52,2477.34,350.35,344.87,33.28,0000 0000 0000 0000 000000
2014-12-25 04:13:04,0.20,4.19,0.00,22.57,27.34,30.54,4.82,26.83,1005.87,2029.00,2155.31,2304.39,2476.07,349.73,344.25,33.31,0000 0000 0000 0000 000000
2014-12-25 04:18:05,0.22,4.20,0.00,22.55,27.33,30.51,4.85,26.90,1005.87,2029.00,2153.76,2303.21,2474.80,350.21,344.75,33.34,0000 0000 0000 0000 000000
2014-12-25 04:23:06,0.21,4.20,0.00,22.56,27.32,30.49,4.72,26.67,1005.88,2029.00,2152.28,2302.17,2473.57,349.73,344.17,33.37,0000 0000 0000 0000 000000
2014-12-25 04:28:08,0.21,4.21,0.00,22.54,27.32,30.48,4.68,26.61,1005.87,2029.00,2150.75,2301.01,2472.33,349.63,344.30,33.40,0000 0000 0000 0000 000000
2014-12-25 04:33:09,0.22,4.22,0.00,22.55,27.32,30.50,4.77,26.80,1005.84,2029.00,2149.27,2299.87,2471.06,350.26,344.79,33.43,0000 0000 0000 0000 000000
2014-12-25 04:38:10,0.24,4.22,0.00,22.53,27.32,30.50,4.79,26.81,1005.87,2029.00,2147.75,2298.70,2469.75,350.23,344.83,33.46,0000 0000 0000 0000 000000
2014-12-25 04:43:12,0.21,4.23,0.00,22.54,27.32,30.51,4.87,26.89,1005.86,2029.00,2146.25,2297.59,2468.55,350.38,344.95,33.49,0000 0000 0000 0000 000000
2014-12-25 04:48:13,0.21,4.24,0.00,22.55,27.32,30.48,4.73,26.88,1005.80,2029.00,2144.85,2296.44,2467.36,349.46,344.15,33.52,0000 0000 0000 0000 000000
2014-12-25 04:53:14,0.20,4.25,0.00,22.53,27.32,30.48,4.65,26.73,1005.84,2029.00,2143.40,2295.33,2466.01,349.31,343.76,33.55,0000 0000 0000 0000 000000
2014-12-25 04:58:15,0.21,4.25,0.00,22.52,27.31,30.51,4.77,26.68,1005.87,2029.00,2141.85,2294.12,2464.84,350.35,344.86,33.58,0000 0000 0000 0000 000000
2014-12-25 05:03:17,0.22,4.26,0.00,22.55,27.30,30.50,4.71,26.78,1005.87,2029.00,2140.41,2292.99,2463.66,350.32,344.49,33.61,0000 0000 0000 0000 000000
2014-12-25 05:08:18,0.22,4.26,0.00,22.55,27.30,30.48,4.82,26.82,1005.88,2029.01,2138.87,2291.88,2462.39,350.34,344.57,33.64,0000 0000 0000 0000 000000
2014-12-25 05:13:19,0.22,4.27,0.00,22.54,27.30,30.45,4.84,26.77,1005.88,2029.00,2137.47,2290.69,2461.12,350.09,344.66,33.66,0000 0000 0000 0000 000000
2014-12-25 05:18:20,0.23,4.28,0.00,22.54,27.30,30.44,4.80,26.87,1005.88,2029.00,2135.95,2289.57,2459.84,350.44,344.99,33.69,0000 0000 0000 0000 000000
2014-12-25 05:23:22,0.22,4.28,0.00,22.54,27.30,30.45,4.73,26.98,1005.87,2029.01,2134.49,2288.42,2458.57,350.01,344.45,33.72,0000 0000 0000 0000 000000
2014-12-25 05:28:23,0.21,4.29,0.00,22.54,27.30,30.46,4.80,27.02,1005.87,2029.01,2132.95,2287.32,2457.38,350.03,344.77,33.75,0000 0000 0000 0000 000000
2014-12-25 05:33:24,0.19,4.30,0.00,22.51,27.29,30.46,4.85,26.98,1005.87,2029.01,2131.49,2286.17,2456.16,350.32,344.89,33.78,0000 0000 0000 0000 000000
2014-12-25 05:38:25,0.28,4.30,0.00,22.51,27.28,30.46,4.67,27.05,1005.87,2029.02,2129.77,2284.84,2454.78,349.23,344.09,33.81,0000 0000 0000 0000 000000
2014-12-25 05:43:27,0.21,4.31,0.00,22.51,27.27,30.48,4.80,27.00,1005.87,2029.00,2128.30,2283.70,2453.51,350.14,344.83,33.84,0000 0000 0000 0000 000000
2014-12-25 05:48:28,0.23,4.32,0.00,22.50,27.27,30.44,4.83,27.18,1005.87,2029.01,2126.77,2282.56,2452.31,350.00,344.65,33.87,0000 0000 0000 0000 000000
2014-12-25 05:53:29,0.20,4.32,0.00,22.47,27.27,30.45,4.78,27.05,1005.87,2029.01,2125.28,2281.37,2451.00,350.24,344.97,33.90,0000 0000 0000 0000 000000
2014-12-25 05:58:31,0.22,4.33,0.00,22.46,27.27,30.45,4.70,26.63,1005.88,2029.01,2123.83,2280.26,2449.80,349.76,344.50,33.93,0000 0000 0000 0000 000000
2014-12-25 06:03:32,0.22,4.34,0.00,22.46,27.27,30.47,4.82,26.78,1005.89,2029.02,2122.38,2279.09,2448.59,350.40,345.19,33.96,0000 0000 0000 0000 000000
2014-12-25 06:08:34,0.23,4.34,0.00,22.47,27.27,30.44,4.64,26.73,1005.90,2029.01,2120.80,2277.88,2447.33,349.70,344.39,33.99,0000 0000 0000 0000 000000
2014-12-25 06:13:35,0.22,4.35,0.00,22.47,27.26,30.46,4.75,26.99,1005.88,2029.01,2119.33,2276.72,2445.99,350.26,345.06,34.02,0000 0000 0000 0000 000000
2014-12-25 06:18:36,0.23,4.36,0.00,22.46,27.25,30.42,4.71,26.78,1005.88,2029.01,2117.86,2275.61,2444.80,349.85,344.63,34.05,0000 0000 0000 0000 000000
2014-12-25 06:23:37,0.22,4.36,0.00,22.45,27.25,30.43,4.84,26.75,1005.87,2029.04,2116.45,2274.55,2443.62,350.38,345.03,34.08,0000 0000 0000 0000 000000
2014-12-25 06:28:39,0.22,4.37,0.00,22.44,27.25,30.42,4.80,26.86,1005.87,2029.04,2114.93,2273.39,2442.38,350.34,345.03,34.10,0000 0000 0000 0000 000000
2014-12-25 06:33:40,0.21,4.38,0.00,22.42,27.25,30.41,4.76,26.97,1005.87,2029.07,2113.52,2272.29,2441.15,349.84,344.53,34.13,0000 0000 0000 0000 000000
2014-12-25 06:38:41,0.24,4.38,0.00,22.43,27.24,30.40,4.74,26.81,1005.86,2029.04,2111.89,2271.05,2439.81,350.36,345.05,34.16,0000 0000 0000 0000 000000
2014-12-25 06:43:42,0.21,4.39,0.00,22.43,27.22,30.39,4.73,26.57,1005.87,2029.06,2110.66,2269.88,2438.64,350.21,345.23,34.19,0000 0000 0000 0000 000000
2014-12-25 06:48:44,0.22,4.40,0.00,22.41,27.22,30.38,4.74,26.80,1005.86,2029.09,2109.32,2268.80,2437.44,350.41,345.18,34.22,0000 0000 0000 0000 000000
2014-12-25 06:53:45,0.23,4.40,0.00,22.38,27.22,30.38,4.78,26.73,1005.83,2029.12,2107.85,2267.70,2436.28,349.96,344.68,34.25,0000 0000 0000 0000 000000
2014-12-25 06:58:46,0.23,4.41,0.00,22.38,27.22,30.39,4.79,26.79,1005.79,2029.16,2106.43,2266.56,2435.07,350.12,344.58,34.28,0000 0000 0000 0000 000000
2014-12-25 07:03:47,0.22,4.42,0.00,22.38,27.22,30.39,4.74,26.82,1005.86,2029.15,2104.88,2265.43,2433.73,349.68,344.38,34.31,0000 0000 0000 0000 000000
2014-12-25 07:08:49,0.22,4.42,0.00,22.39,27.21,30.39,4.78,26.79,1005.87,2029.11,2103.41,2264.27,2432.48,349.60,344.36,34.34,0000 0000 0000 0000 000000
2014-12-25 07:13:50,0.23,4.43,0.00,22.37,27.20,30.37,4.83,26.97,1005.87,2029.19,2101.90,2263.11,2431.37,350.77,345.39,34.37,0000 0000 0000 0000 000000
2014-12-25 07:18:51,0.22,4.44,0.00,22.35,27.20,30.36,4.84,26.87,1005.83,2029.24,2100.47,2261.93,2430.17,350.54,345.33,34.40,0000 0000 0000 0000 000000
2014-12-25 07:23:52,0.23,4.44,0.00,22.34,27.20,30.36,4.77,27.02,1005.81,2029.22,2098.94,2260.76,2428.88,349.57,344.32,34.43,0000 0000 0000 0000 000000
2014-12-25 07:28:54,0.24,4.45,0.00,22.33,27.19,30.36,4.77,27.02,1005.87,2029.26,2097.51,2259.69,2427.67,349.81,344.48,34.46,0000 0000 0000 0000 000000
2014-12-25 07:33:55,0.23,4.46,0.00,22.32,27.17,30.35,4.68,26.78,1005.88,2029.34,2096.03,2258.51,2426.45,349.64,344.43,34.49,0000 0000 0000 0000 000000
2014-12-25 07:38:57,0.17,4.46,0.00,22.31,27.17,30.32,4.79,26.93,1005.92,2029.21,2094.55,2257.38,2425.19,349.97,345.03,34.52,0000 0000 0000 0000 000000
2014-12-25 07:43:58,0.24,4.47,0.00,22.30,27.17,30.31,4.75,26.87,1005.94,2029.21,2093.08,2256.21,2423.94,349.57,344.50,34.54,0000 0000 0000 0000 000000
2014-12-25 07:49:00,0.29,4.48,0.00,22.30,27.16,30.31,4.77,26.88,1006.08,2029.53,2091.67,2255.15,2422.74,350.34,345.23,34.57,0000 0000 0000 0000 000000
2014-12-25 07:54:01,0.24,4.49,0.00,22.31,27.15,30.32,4.73,26.84,1006.04,2029.71,2090.26,2254.01,2421.58,349.94,344.90,34.60,0000 0000 0000 0000 000000
2014-12-25 07:59:03,0.23,4.49,0.00,22.29,27.15,30.27,4.82,26.90,1005.93,2029.79,2088.76,2252.84,2420.40,350.23,345.00,34.63,0000 0000 0000 0000 000000
2014-12-25 08:04:04,0.24,4.50,0.00,22.30,27.15,30.30,4.82,26.93,1005.89,2029.89,2087.39,2251.77,2419.13,350.26,345.09,34.66,0000 0000 0000 0000 000000
2014-12-25 08:09:05,0.25,4.51,0.00,22.33,27.13,30.30,4.85,26.93,1005.89,2029.90,2085.80,2250.61,2417.86,350.79,345.57,34.69,0000 0000 0000 0000 000000
2014-12-25 08:14:07,0.22,4.51,0.00,22.33,27.12,30.30,4.81,27.02,1005.95,2029.88,2084.46,2249.48,2416.70,350.21,344.96,34.72,0000 0000 0000 0000 000000
2014-12-25 08:19:08,0.21,4.52,0.00,22.34,27.12,30.27,4.79,27.00,1006.13,2029.94,2083.02,2248.42,2415.58,350.13,344.86,34.75,0000 0000 0000 0000 000000
2014-12-25 08:24:09,0.22,4.53,0.00,22.35,27.12,30.27,4.67,26.65,1005.99,2029.96,2081.62,2247.34,2414.38,349.79,344.71,34.78,0000 0000 0000 0000 000000
2014-12-25 08:29:10,0.20,4.54,0.00,22.34,27.11,30.27,4.78,26.70,1006.19,2029.98,2080.28,2246.24,2413.21,350.09,344.75,34.81,0000 0000 0000 0000 000000
2014-12-25 08:34:12,0.22,4.54,0.00,22.36,27.10,30.29,4.75,26.73,1006.31,2029.98,2078.82,2245.17,2411.98,349.72,344.54,34.84,0000 0000 0000 0000 000000
2014-12-25 08:39:13,0.23,4.55,0.00,22.35,27.10,30.28,4.69,26.73,1006.23,2029.99,2077.38,2243.98,2410.74,349.39,344.29,34.87,0000 0000 0000 0000 000000
2014-12-25 08:44:15,0.21,4.55,0.00,22.38,27.10,30.28,4.75,26.75,1005.96,2029.97,2075.93,2242.88,2409.60,349.80,344.57,34.90,0000 0000 0000 0000 000000
2014-12-25 08:49:16,0.24,4.56,0.00,22.38,27.10,30.26,4.69,26.73,1005.90,2029.97,2074.58,2241.74,2408.43,349.47,344.34,34.93,0000 0000 0000 0000 000000
2014-12-25 08:54:17,0.21,4.57,0.00,22.38,27.10,30.27,4.72,26.72,1005.87,2029.98,2073.11,2240.67,2407.23,349.70,344.59,34.95,0000 0000 0000 0000 000000
2014-12-25 08:59:18,0.20,3.20,0.00,22.37,27.10,30.24,4.38,23.94,1005.87,2031.04,2497.03,2567.46,2768.58,312.94,308.21,0.00,0000 0000 0000 0000 000002
2014-12-25 09:04:19,0.19,0.00,0.00,22.39,27.10,30.22,4.83,26.63,1005.87,2033.05,3484.30,3329.89,3612.84,349.70,344.43,0.01,0000 0000 0000 0000 000000
2014-12-25 09:09:21,0.19,0.00,0.00,22.40,27.10,30.26,4.81,26.58,1005.87,2033.03,3480.52,3327.67,3610.13,350.52,345.17,0.04,0000 0000 0000 0000 000000
2014-12-25 09:14:22,0.21,0.01,0.00,22.41,27.10,30.25,4.71,26.41,1005.87,2033.02,3477.25,3325.51,3607.47,349.84,344.63,0.07,0000 0000 0000 0000 000000
2014-12-25 09:19:23,0.23,0.02,0.00,22.45,27.10,30.25,4.78,26.66,1005.86,2033.01,3474.08,3323.28,3604.89,349.73,344.50,0.10,0000 0000 0000 0000 000000
2014-12-25 09:24:24,0.24,0.02,0.00,22.45,27.10,30.26,4.71,26.56,1005.85,2033.01,3470.92,3321.02,3602.39,349.62,344.23,0.13,0000 0000 0000 0000 000000
2014-12-25 09:29:26,0.23,0.03,0.00,22.43,27.10,30.25,4.79,26.48,1005.87,2033.02,3467.89,3318.88,3599.99,350.26,344.91,0.16,0000 0000 0000 0000 000000
2014-12-25 09:34:27,0.23,0.04,0.00,22.46,27.10,30.26,4.82,26.51,1005.87,2033.02,3464.89,3316.63,3597.53,349.94,344.55,0.19,0000 0000 0000 0000 000000
2014-12-25 09:39:29,0.23,0.04,0.00,22.50,27.10,30.25,4.79,26.67,1005.87,2033.01,3461.81,3314.41,3595.15,350.03,344.59,0.22,0000 0000 0000 0000 000000
2014-12-25 09:44:30,0.22,0.05,0.00,22.51,27.10,30.26,4.80,26.43,1005.87,2033.03,3458.92,3312.27,3592.86,350.06,344.73,0.25,0000 0000 0000 0000 000000
2014-12-25 09:49:31,0.23,0.06,0.00,22.53,27.10,30.26,4.79,26.48,1005.87,2033.02,3455.94,3310.07,3590.49,349.97,344.36,0.28,0000 0000 0000 0000 000000
2014-12-25 09:54:32,0.22,0.06,0.00,22.53,27.12,30.26,4.76,26.39,1005.87,2033.03,3452.98,3307.90,3588.18,349.95,344.51,0.31,0000 0000 0000 0000 000000
2014-12-25 09:59:34,0.23,0.07,0.00,22.52,27.12,30.27,4.77,26.42,1005.88,2033.04,3450.04,3305.73,3585.83,349.71,344.41,0.33,0000 0000 0000 0000 000000
2014-12-25 10:04:35,0.21,0.08,0.00,22.54,27.12,30.27,4.77,26.36,1005.87,2033.05,3447.12,3303.56,3583.55,349.73,344.14,0.36,0000 0000 0000 0000 000000
2014-12-25 10:09:36,0.23,0.08,0.00,22.56,27.12,30.25,4.73,26.47,1005.87,2033.04,3444.20,3301.40,3581.33,349.81,344.39,0.39,0000 0000 0000 0000 000000
2014-12-25 10:14:37,0.22,0.09,0.00,22.56,27.13,30.27,4.80,26.58,1005.86,2033.04,3441.32,3299.26,3578.93,349.88,344.57,0.42,0000 0000 0000 0000 000000
2014-12-25 10:19:38,0.22,0.10,0.00,22.60,27.15,30.23,4.72,26.37,1005.84,2033.04,3438.46,3297.11,3576.54,349.63,343.95,0.45,0000 0000 0000 0000 000000
2014-12-25 10:24:39,0.23,0.10,0.00,22.61,27.15,30.27,4.77,26.43,1005.86,2033.04,3435.59,3294.94,3574.20,349.79,344.28,0.48,0000 0000 0000 0000 000000
2014-12-25 10:29:41,0.22,0.11,0.00,22.60,27.15,30.26,4.75,26.43,1005.77,2033.04,3432.80,3292.80,3571.92,350.10,344.49,0.51,0000 0000 0000 0000 000000
2014-12-25 10:34:42,0.22,0.12,0.00,22.64,27.17,30.27,4.80,26.73,1005.81,2033.03,3429.79,3290.57,3569.48,350.17,344.50,0.54,0000 0000 0000 0000 000000
2014-12-25 10:39:43,0.24,0.12,0.00,22.66,27.17,30.27,4.72,26.68,1005.67,2033.00,3426.80,3288.23,3566.95,349.83,344.18,0.57,0000 0000 0000 0000 000000
2014-12-25 10:44:44,0.23,0.13,0.00,22.67,27.17,30.27,4.81,26.61,1005.52,2033.00,3423.92,3285.96,3564.33,350.25,344.40,0.60,0000 0000 0000 0000 000000
2014-12-25 10:49:46,0.23,0.14,0.00,22.70,27.20,30.27,4.75,26.73,1005.48,2033.00,3420.99,3283.70,3561.88,350.48,344.75,0.63,0000 0000 0000 0000 000000
2014-12-25 10:54:47,0.22,0.14,0.00,22.71,27.20,30.29,4.89,26.58,1005.40,2033.00,3418.09,3281.48,3559.45,350.32,344.50,0.66,0000 0000 0000 0000 000000
2014-12-25 10:59:49,0.22,0.15,0.00,22.68,27.21,30.28,4.80,26.70,1005.40,2033.00,3415.15,3279.37,3557.20,350.24,344.45,0.69,0000 0000 0000 0000 000000
2014-12-25 11:04:50,0.23,0.16,0.00,22.72,27.22,30.28,4.78,26.61,1005.39,2032.99,3412.19,3277.16,3554.80,350.18,344.35,0.72,0000 0000 0000 0000 000000
2014-12-25 11:09:51,0.22,0.16,0.00,22.76,27.22,30.31,4.62,26.51,1005.40,2032.99,3409.33,3274.96,3552.48,349.84,343.70,0.74,0000 0000 0000 0000 000000
2014-12-25 11:14:52,0.22,0.17,0.00,22.77,27.25,30.31,4.80,26.70,1005.39,2032.98,3406.44,3272.77,3550.12,349.94,344.16,0.77,0000 0000 0000 0000 000000
2014-12-25 11:19:54,0.23,0.18,0.00,22.80,27.25,30.32,4.69,26.57,1005.39,2032.99,3403.55,3270.61,3547.74,349.51,343.79,0.80,0000 0000 0000 0000 000000
2014-12-25 11:24:55,0.22,0.18,0.00,22.81,27.27,30.33,4.72,26.63,1005.39,2032.98,3400.66,3268.46,3545.38,350.29,344.34,0.83,0000 0000 0000 0000 000000
2014-12-25 11:29:56,0.22,0.19,0.00,22.84,27.27,30.35,4.73,26.68,1005.39,2032.98,3397.88,3266.32,3543.11,350.06,344.20,0.86,0000 0000 0000 0000 000000
2014-12-25 11:34:58,0.23,0.20,0.00,22.82,27.29,30.36,4.69,26.52,1005.39,2032.97,3394.98,3264.15,3540.74,350.26,344.31,0.89,0000 0000 0000 0000 000000
2014-12-25 11:39:59,0.21,0.20,0.00,22.86,27.30,30.35,4.76,26.52,1005.39,2032.92,3392.07,3262.06,3538.28,350.16,344.23,0.92,0000 0000 0000 0000 000000
2014-12-25 11:45:00,0.18,0.21,0.00,22.87,27.32,30.37,4.76,26.46,1005.39,2032.70,3389.39,3259.84,3535.84,350.10,343.98,0.95,0000 0000 0000 0000 000000
2014-12-25 11:50:01,0.16,0.22,0.00,22.89,27.33,30.36,4.78,26.50,1005.39,2032.29,3386.57,3257.62,3533.38,350.38,344.54,0.98,0000 0000 0000 0000 000000
2014-12-25 11:55:03,0.20,0.22,0.00,22.92,27.35,30.38,4.69,26.46,1005.40,2032.10,3383.81,3255.49,3531.06,349.90,343.77,1.01,0000 0000 0000 0000 000000
2014-12-25 12:00:04,0.21,0.23,0.00,22.95,27.36,30.40,4.76,26.44,1005.40,2032.05,3380.99,3253.32,3528.71,349.99,343.89,1.04,0000 0000 0000 0000 000000
2014-12-25 12:05:05,0.22,0.23,0.00,22.94,27.37,30.43,4.74,26.50,1005.40,2032.03,3378.23,3251.23,3526.46,349.89,343.70,1.07,0000 0000 0000 0000 000000
2014-12-25 12:10:06,0.22,0.24,0.00,22.98,27.40,30.45,4.71,26.53,1005.41,2032.02,3375.42,3249.10,3524.18,350.08,343.86,1.10,0000 0000 0000 0000 000000
2014-12-25 12:15:08,0.23,0.25,0.00,22.99,27.41,30.43,4.80,26.59,1005.39,2032.02,3372.51,3246.99,3521.92,350.28,344.13,1.13,0000 0000 0000 0000 000000
2014-12-25 12:20:09,0.21,0.25,0.00,23.00,27.42,30.45,4.75,26.62,1005.39,2032.01,3369.67,3244.83,3519.71,350.32,344.17,1.15,0000 0000 0000 0000 000000
2014-12-25 12:25:11,0.22,0.26,0.00,23.05,27.45,30.48,4.72,26.48,1005.40,2032.00,3366.81,3242.63,3517.51,350.12,343.85,1.18,0000 0000 0000 0000 000000
2014-12-25 12:30:12,0.22,0.27,0.00,23.05,27.46,30.49,4.80,26.53,1005.39,2032.00,3363.98,3240.48,3515.18,350.43,343.99,1.21,0000 0000 0000 0000 000000
2014-12-25 12:35:13,0.24,0.27,0.00,23.08,27.47,30.51,4.71,26.52,1005.39,2032.00,3361.05,3238.22,3512.74,349.86,343.71,1.24,0000 0000 0000 0000 000000
2014-12-25 12:40:14,0.23,0.28,0.00,23.12,27.50,30.52,4.76,26.68,1005.39,2032.00,3358.15,3236.02,3510.27,349.74,343.52,1.27,0000 0000 0000 0000 000000
2014-12-25 12:45:15,0.21,0.29,0.00,23.14,27.51,30.53,4.70,26.47,1005.40,2032.00,3355.42,3233.92,3508.08,350.21,343.80,1.30,0000 0000 0000 0000 000000
2014-12-25 12:50:17,0.22,0.29,0.00,23.16,27.52,30.54,4.66,26.63,1005.39,2031.99,3352.52,3231.71,3505.75,349.93,343.59,1.33,0000 0000 0000 0000 000000
2014-12-25 12:55:18,0.23,0.30,0.00,23.15,27.55,30.57,4.59,26.55,1005.39,2031.98,3349.75,3229.49,3503.33,349.41,343.10,1.36,0000 0000 0000 0000 000000
2014-12-25 13:00:19,0.22,0.31,0.00,23.17,27.56,30.58,4.82,26.82,1005.39,2031.96,3346.88,3227.31,3500.96,350.62,344.37,1.39,0000 0000 0000 0000 000000